[[{"header":{"parameterUnit":"m.s-1","parameterCategory":1,"la1":30.2991,"la2":30.254,"lo1":-89.0895,"lo2":-89.0444,"dy":0.0017,"dx":0.0017,"nx":28,"ny":28,"refTime":"2024-10-01T09:00:00:Z","depth":0,"parameterNumber":2,"parameterNumberName":"U-component_of_WINDS"},"data":[0,0,0,0,0,0,0,0,0,0,0,0,0,0,0,0,0,0,0,0,0,0,0,0,0,0,0,0,0,0,0,0,0,0,0,0,0,0,0,0,0,0,0,0,0,0,0,0,0,0,0,0,0,0,0,0,0,0,-0.9856,-0.9857,0,-0.9927,-0.9927,-0.9928,-0.991,-0.9909,-0.9908,-0.9906,-0.9977,-0.998,-0.9983,0,0,0,0,0,0,0,0,0,0,0,0,0,-0.9703,-0.9706,-0.9856,-0.9857,-0.9858,-0.9926,-0.9927,-0.9928,-0.9911,-0.9909,-0.9907,-0.9906,-0.9975,-0.9979,-0.9983,0,0,0,0,0,0,0,0,0,0,0,0,0,-0.9771,-0.9707,-0.9856,-0.9857,-0.9858,-0.9926,-0.9927,-0.9929,-0.9911,-0.9909,-0.9907,-0.9905,-0.9974,-0.9979,-0.9984,-1.0054,0,0,-0.9998,-1.0,0,0,0,0,0,0,0,0,-0.9767,-0.9777,-0.9856,-0.9857,-0.9858,-0.9908,-0.9899,-0.9971,-0.9911,-0.9891,-0.9906,-0.9904,-0.9955,-0.9961,-0.9979,-1.0057,-1.006,-0.9998,-1.0001,-1.0003,-1.0005,0,0,0,0,0,0,0,-0.9763,-0.9774,-0.9884,-0.9857,-0.9859,-0.9853,-0.9861,-0.9913,-0.9934,-0.9892,-0.9891,-0.99,-0.9955,-0.9975,-0.9981,-1.0062,-0.9998,-1.0002,-1.0005,-1.0007,-1.02,-1.0202,0,0,0,0,0,0,-0.9757,-0.977,-0.9882,-0.9886,-0.9807,-0.9858,-0.9866,-0.9894,-0.9933,-0.9937,-0.9902,-0.9899,-0.9967,-0.9975,-0.9983,-1.0068,-1.0003,-1.0008,-1.001,-1.0198,-1.0201,-1.0203,0,0,0,0,0,0,-0.9754,-0.9767,-0.9879,-0.9828,-0.9841,-0.9863,-0.9894,-0.9896,-0.9916,-0.994,-0.9943,-0.9918,-0.9966,-0.9976,-1.0037,-1.007,-1.001,-1.0014,-1.0195,-1.0199,-1.0202,-1.0238,0,0,0,0,0,0,-0.975,-0.9766,-0.9794,-0.9828,-0.9844,-0.9932,-0.9896,-0.9899,-0.9924,-0.9921,-0.9956,-0.996,-0.9965,-1.003,-1.0041,-1.0075,-1.0018,-1.0192,-1.0197,-1.0201,-1.0234,-1.0242,-1.0249,0,0,0,0,0,-0.9744,-0.9801,-0.9796,-0.9809,-0.9879,-0.9934,-0.9943,-0.9949,-0.9927,-0.9954,-0.997,-0.9959,-1.0064,-1.0036,-1.0049,-1.0085,-1.019,-1.0196,-1.0201,-1.023,-1.024,-1.0249,0,0,0,0,0,0,-0.977,-0.9806,-0.98,-0.987,-0.9899,-0.9931,-0.9966,-0.9959,-0.9995,-0.9991,-0.9996,-1.0004,-1.0065,-1.0081,-1.0049,-1.0155,-1.0124,-1.0132,-1.0142,-1.0152,-1.016,-1.0154,-1.0022,0,0,0,0,0,-0.9783,-0.9826,-0.9854,-0.9913,-0.9928,-0.9945,-0.9969,-0.9971,-1.0001,-1.0013,-1.0033,-1.0062,-1.0102,-1.0128,-1.0166,-1.0236,-1.0243,-1.0267,-1.0275,-1.0281,-1.0288,-1.0325,-1.0336,-1.022,-1.022,-1.022,0,0,-0.9812,-0.9837,-0.9863,-0.9919,-0.9942,-0.9984,-0.9955,-1.0002,-1.0033,-1.002,-1.0078,-1.0094,-1.0126,-1.0192,-1.0222,-1.0207,-1.0321,-1.0288,-1.0292,-1.0296,-1.0331,-1.0342,-1.0352,-1.0224,-1.0223,-1.0222,0,0,-0.9886,-0.9909,-0.9961,-0.9984,-1.002,-1.003,-1.0042,-1.0075,-1.0085,-1.0144,-1.0135,-1.0172,-1.024,-1.0264,-1.0285,-1.0367,-1.0357,-1.0379,-1.0419,-1.0456,-1.0465,-1.0473,-1.0501,-1.0511,-1.0386,-1.0386,-1.0386,0,-0.9917,-0.9982,-0.9987,-1.0035,-1.0059,-1.005,-1.0101,-1.0123,-1.0169,-1.0186,-1.0169,-1.0254,-1.0275,-1.0346,-1.0366,-1.0383,-1.0397,-1.0375,-1.0463,-1.0471,-1.0479,-1.0506,-1.0517,-1.0388,-1.0388,-1.0388,-1.0387,0,-1.0018,-1.0062,-1.0099,-1.0144,-1.0173,-1.0222,-1.0234,-1.0262,-1.0262,-1.0273,-1.0333,-1.0358,-1.0401,-1.0417,-1.0417,-1.0488,-1.0477,-1.0462,-1.0431,-1.0492,-1.0518,-1.0528,-1.0392,-1.0391,-1.039,-1.0389,0,0,-1.0109,-1.0157,-1.017,-1.019,-1.0228,-1.0263,-1.0311,-1.0353,-1.0376,-1.0408,-1.0448,-1.0506,-1.0492,-1.0515,-1.0517,-1.055,-1.0612,-1.053,-1.0531,-1.0544,-1.069,-1.0701,-1.0713,-1.0606,-1.0608,-1.061,-1.0687,0,-1.0186,-1.0272,-1.0278,-1.0355,-1.0396,-1.0388,-1.0429,-1.0457,-1.0469,-1.0505,-1.0518,-1.0559,-1.0537,-1.0552,-1.0583,-1.0598,-1.0641,-1.0592,-1.0642,-1.0644,-1.0634,-1.0727,-1.0738,-1.081,-1.0697,-1.0699,-1.07,0,-1.0287,-1.0322,-1.0404,-1.0435,-1.0453,-1.0491,-1.0529,-1.0564,-1.0594,-1.0601,-1.0627,-1.0625,-1.0673,-1.0641,-1.0707,-1.0673,-1.0694,-1.0704,-1.0707,-1.0712,-1.0675,-1.0733,-1.0833,-1.0844,-1.0716,-1.0715,-1.0714,0,-1.0345,-1.0413,-1.047,-1.0487,-1.0526,-1.0553,-1.057,-1.0598,-1.0623,-1.0657,-1.0672,-1.0711,-1.0732,-1.0761,-1.0769,-1.0745,-1.0834,-1.0803,-1.084,-1.084,-1.0859,-1.0858,-1.0964,-1.0874,-1.0873,-1.0873,-1.0873,0,-1.043,-1.048,-1.0496,-1.0532,-1.0587,-1.0593,-1.0647,-1.0663,-1.0688,-1.0725,-1.072,-1.0755,-1.0763,-1.0799,-1.0805,-1.0858,-1.0868,-1.0873,-1.0874,-1.0874,-1.0873,-1.0887,-1.0882,-1.0876,-1.0875,-1.0875,-1.0874,0,-1.0504,-1.0517,-1.0579,-1.061,-1.0619,-1.0659,-1.0685,-1.0718,-1.073,-1.0777,-1.0788,-1.0806,-1.0848,-1.0859,-1.0909,-1.0913,-1.0975,-1.0972,-1.0965,-1.0965,-1.1001,-1.0997,-1.1119,-1.1135,-1.1035,-1.1036,-1.1037,0,-1.0556,-1.0595,-1.0631,-1.0655,-1.0674,-1.0714,-1.0739,-1.0747,-1.0773,-1.0811,-1.0839,-1.0881,-1.0914,-1.0981,-1.0998,-1.1036,-1.1033,-1.1073,-1.1038,-1.1036,-1.1032,-1.103,-1.1033,-1.1079,-1.108,-1.1081,-1.1082,0,-1.0648,-1.0653,-1.069,-1.073,-1.0761,-1.0792,-1.0822,-1.0842,-1.0854,-1.0883,-1.0927,-1.0953,-1.1004,-1.1045,-1.1083,-1.1099,-1.1092,-1.1093,-1.1103,-1.1102,-1.1097,-1.1099,-1.0982,-1.109,-1.1089,-1.1088,-1.1088,-1.1088,-1.0713,-1.0746,-1.0777,-1.0818,-1.0841,-1.0869,-1.0902,-1.0918,-1.0954,-1.0997,-1.0999,-1.1046,-1.1074,-1.1125,-1.1143,-1.1179,-1.1167,-1.1182,-1.1186,-1.1189,-1.1192,-1.1092,-1.1186,-1.1186,-1.1186,-1.1185,-1.1185,0,-1.0804,-1.0823,-1.0861,-1.0903,-1.0936,-1.0927,-1.096,-1.0987,-1.1028,-1.1056,-1.1089,-1.1138,-1.1178,-1.1198,-1.1236,-1.1261,-1.1259,-1.1271,-1.1269,-1.1272,-1.1201,-1.1188,-1.1272,-1.1272,-1.1272,-1.1272,-1.1272,-1.1272,-1.0855,-1.0911,-1.0919,-1.0985,-1.1004,-1.105,-1.1069,-1.1095,-1.1117,-1.1172,-1.1205,-1.1218,-1.1242,-1.1283,-1.1318,-1.1323,-1.1337,-1.135,-1.1353,-1.1286,-1.1277,-1.1269,-1.1256,-1.1354,-1.1354,-1.1421,-1.1422,-1.1422]},{"header":{"parameterUnit":"m.s-1","parameterCategory":1,"la1":30.2991,"la2":30.254,"lo1":-89.0895,"lo2":-89.0444,"dy":0.0017,"dx":0.0017,"nx":28,"ny":28,"refTime":"2024-10-01T09:00:00:Z","depth":0,"parameterNumber":3,"parameterNumberName":"V-component_of_WINDS"},"data":[0,0,0,0,0,0,0,0,0,0,0,0,0,0,0,0,0,0,0,0,0,0,0,0,0,0,0,0,0,0,0,0,0,0,0,0,0,0,0,0,0,0,0,0,0,0,0,0,0,0,0,0,0,0,0,0,0,0,-2.4545,-2.4546,0,-2.4597,-2.4598,-2.4598,-2.459,-2.4589,-2.4588,-2.4587,-2.4637,-2.464,-2.4642,0,0,0,0,0,0,0,0,0,0,0,0,0,-2.4435,-2.4437,-2.4545,-2.4546,-2.4547,-2.4597,-2.4598,-2.4599,-2.459,-2.4589,-2.4588,-2.4587,-2.4637,-2.4639,-2.4642,0,0,0,0,0,0,0,0,0,0,0,0,0,-2.4485,-2.4438,-2.4545,-2.4549,-2.4549,-2.4597,-2.4598,-2.4599,-2.459,-2.4589,-2.4588,-2.4586,-2.4636,-2.4639,-2.4642,-2.4689,0,0,-2.4652,-2.4654,0,0,0,0,0,0,0,0,-2.4482,-2.4489,-2.4547,-2.4548,-2.4549,-2.4586,-2.4577,-2.4629,-2.4591,-2.4575,-2.4587,-2.4586,-2.4621,-2.4625,-2.4638,-2.4691,-2.4693,-2.4652,-2.4654,-2.4656,-2.4657,0,0,0,0,0,0,0,-2.4478,-2.4486,-2.4566,-2.4548,-2.4549,-2.4546,-2.4552,-2.4587,-2.4605,-2.4576,-2.4576,-2.4582,-2.4621,-2.4635,-2.4639,-2.4694,-2.4652,-2.4655,-2.4657,-2.4658,-2.4786,-2.4788,0,0,0,0,0,0,-2.4474,-2.4483,-2.4564,-2.4567,-2.4512,-2.4549,-2.4556,-2.4575,-2.4604,-2.4607,-2.4583,-2.4581,-2.463,-2.4635,-2.4641,-2.4696,-2.4656,-2.4659,-2.4661,-2.4785,-2.4787,-2.4788,0,0,0,0,0,0,-2.4472,-2.4482,-2.4562,-2.4525,-2.4535,-2.4553,-2.4575,-2.4577,-2.4591,-2.461,-2.4612,-2.4594,-2.4629,-2.4636,-2.4677,-2.4698,-2.466,-2.4663,-2.4783,-2.4785,-2.4787,-2.4808,0,0,0,0,0,0,-2.4469,-2.4481,-2.45,-2.4526,-2.4537,-2.4598,-2.4576,-2.4579,-2.4597,-2.4595,-2.4621,-2.4623,-2.4629,-2.4672,-2.468,-2.4702,-2.4666,-2.4781,-2.4784,-2.4787,-2.4806,-2.4811,-2.4815,0,0,0,0,0,-2.4465,-2.4503,-2.4501,-2.451,-2.4561,-2.4599,-2.4606,-2.4612,-2.4598,-2.4617,-2.4629,-2.4623,-2.4695,-2.4676,-2.4685,-2.4708,-2.478,-2.4783,-2.4787,-2.4804,-2.481,-2.4815,0,0,0,0,0,0,-2.4478,-2.4507,-2.4504,-2.4552,-2.4574,-2.4598,-2.4621,-2.4619,-2.4644,-2.4641,-2.4647,-2.4652,-2.4693,-2.4705,-2.4684,-2.4754,-2.4735,-2.474,-2.4745,-2.4751,-2.4756,-2.4752,-2.4668,0,0,0,0,0,-2.4487,-2.4517,-2.4539,-2.4579,-2.459,-2.4604,-2.4621,-2.4624,-2.4646,-2.4655,-2.4669,-2.469,-2.4717,-2.4735,-2.4761,-2.4807,-2.4812,-2.4828,-2.4832,-2.4836,-2.484,-2.4864,-2.4871,-2.4799,-2.4799,-2.4799,0,0,-2.4504,-2.4524,-2.4542,-2.4582,-2.4599,-2.4629,-2.4612,-2.4644,-2.4665,-2.4659,-2.4698,-2.471,-2.4733,-2.4777,-2.4796,-2.4787,-2.4861,-2.484,-2.4843,-2.4845,-2.4868,-2.4875,-2.4881,-2.4801,-2.4801,-2.48,0,0,-2.4552,-2.457,-2.4605,-2.4622,-2.4648,-2.4657,-2.4665,-2.469,-2.4698,-2.4738,-2.4733,-2.4758,-2.4805,-2.4822,-2.4836,-2.4889,-2.4884,-2.4897,-2.4922,-2.4945,-2.4951,-2.4956,-2.4973,-2.498,-2.4901,-2.4902,-2.4902,0,-2.457,-2.4616,-2.4623,-2.4655,-2.4672,-2.4669,-2.4703,-2.472,-2.4752,-2.4764,-2.4754,-2.4812,-2.4827,-2.4874,-2.4887,-2.4899,-2.4907,-2.4894,-2.495,-2.4955,-2.496,-2.4976,-2.4983,-2.4903,-2.4903,-2.4903,-2.4902,0,-2.4636,-2.4668,-2.4692,-2.4725,-2.4745,-2.4778,-2.4789,-2.4808,-2.4809,-2.4819,-2.4858,-2.4877,-2.4906,-2.4918,-2.4919,-2.4964,-2.4957,-2.4949,-2.4929,-2.4968,-2.4984,-2.499,-2.4905,-2.4904,-2.4904,-2.4904,0,0,-2.4693,-2.4729,-2.4738,-2.4752,-2.4781,-2.4804,-2.4837,-2.4866,-2.4882,-2.4905,-2.4931,-2.4971,-2.4962,-2.4979,-2.4981,-2.5002,-2.5041,-2.499,-2.4991,-2.4998,-2.5091,-2.5097,-2.5104,-2.5038,-2.5039,-2.504,-2.5088,0,-2.4742,-2.4801,-2.4808,-2.4859,-2.4887,-2.4884,-2.4912,-2.4932,-2.4942,-2.4966,-2.4976,-2.5003,-2.4991,-2.5001,-2.5021,-2.5032,-2.506,-2.5029,-2.5061,-2.5062,-2.5055,-2.5113,-2.5119,-2.5164,-2.5095,-2.5096,-2.5097,0,-2.4808,-2.4833,-2.4887,-2.4911,-2.4923,-2.4948,-2.4975,-2.4999,-2.502,-2.5026,-2.5044,-2.5044,-2.5076,-2.5056,-2.5099,-2.5078,-2.5092,-2.5099,-2.5101,-2.5104,-2.5081,-2.5116,-2.5178,-2.5184,-2.5107,-2.5106,-2.5105,0,-2.4842,-2.489,-2.4928,-2.4941,-2.4969,-2.4987,-2.4999,-2.502,-2.5037,-2.506,-2.5071,-2.5097,-2.5111,-2.5131,-2.5137,-2.5123,-2.518,-2.5161,-2.5184,-2.5184,-2.5196,-2.5195,-2.526,-2.5206,-2.5206,-2.5206,-2.5206,0,-2.4896,-2.4929,-2.4944,-2.4968,-2.5004,-2.5011,-2.5047,-2.5058,-2.5076,-2.5101,-2.51,-2.5123,-2.513,-2.5154,-2.5159,-2.5194,-2.52,-2.5204,-2.5205,-2.5204,-2.5204,-2.5213,-2.5209,-2.5208,-2.5207,-2.5207,-2.5207,0,-2.4941,-2.4952,-2.4994,-2.5018,-2.5024,-2.505,-2.507,-2.5092,-2.5101,-2.5132,-2.514,-2.5154,-2.5181,-2.519,-2.5224,-2.5227,-2.5267,-2.5265,-2.526,-2.526,-2.5282,-2.5279,-2.5354,-2.5364,-2.5305,-2.5305,-2.5306,0,-2.4974,-2.5,-2.5026,-2.5043,-2.5056,-2.5084,-2.5101,-2.5109,-2.5126,-2.5152,-2.5171,-2.5199,-2.5221,-2.5266,-2.5278,-2.5303,-2.5302,-2.5326,-2.5305,-2.5303,-2.5301,-2.5299,-2.5301,-2.533,-2.5331,-2.5331,-2.5332,0,-2.5031,-2.5036,-2.5061,-2.5089,-2.511,-2.5131,-2.5152,-2.5166,-2.5176,-2.5196,-2.5225,-2.5242,-2.5277,-2.5304,-2.5329,-2.5341,-2.5337,-2.5338,-2.5345,-2.5343,-2.5338,-2.534,-2.5269,-2.5336,-2.5336,-2.5335,-2.5335,-2.5335,-2.5071,-2.5093,-2.5115,-2.5143,-2.516,-2.5179,-2.5201,-2.5212,-2.5237,-2.5266,-2.5269,-2.53,-2.5319,-2.5353,-2.5366,-2.5389,-2.5382,-2.5392,-2.5394,-2.5396,-2.5397,-2.5336,-2.5394,-2.5394,-2.5394,-2.5394,-2.5394,0,-2.5127,-2.5141,-2.5167,-2.5196,-2.5218,-2.5214,-2.5237,-2.5255,-2.5282,-2.5302,-2.5324,-2.5356,-2.5382,-2.5397,-2.5422,-2.5438,-2.5437,-2.5444,-2.5443,-2.5445,-2.5403,-2.5394,-2.5445,-2.5445,-2.5445,-2.5445,-2.5445,-2.5445,-2.5159,-2.5196,-2.5202,-2.5247,-2.526,-2.5291,-2.5304,-2.5321,-2.5337,-2.5373,-2.5395,-2.5405,-2.5421,-2.5448,-2.5471,-2.5475,-2.5484,-2.5492,-2.5494,-2.5454,-2.5448,-2.5443,-2.5435,-2.5494,-2.5494,-2.5534,-2.5535,-2.5535]}]]